Previsão horária em Plesy

Hoje, 5 Março, Sexta-feira

Tempo Temperatura Precipitação Vento Pressão Humidade
00:00 -5°C° 0 mm 3 m/s 744 mmHg 75%
01:00 -5°C° 0 mm 3 m/s 744 mmHg 76%
02:00 -4°C° 0 mm 2 m/s 745 mmHg 77%
03:00 -4°C° 0 mm 2 m/s 745 mmHg 77%
04:00 -5°C° 0 mm 2 m/s 745 mmHg 76%
05:00 -5°C° 0 mm 2 m/s 745 mmHg 76%
06:00 -6°C° 0 mm 3 m/s 745 mmHg 76%
07:00 -5°C° 0 mm 3 m/s 746 mmHg 75%
08:00 -5°C° 0 mm 4 m/s 746 mmHg 75%
09:00 -4°C° 0 mm 4 m/s 746 mmHg 67%
10:00 -4°C° 0 mm 4 m/s 746 mmHg 60%
11:00 -4°C° 0 mm 5 m/s 747 mmHg 52%
12:00 -4°C° 0 mm 5 m/s 747 mmHg 47%
13:00 -2°C° 0 mm 5 m/s 747 mmHg 41%
14:00 -2°C° 0 mm 5 m/s 748 mmHg 36%
15:00 -4°C° 0 mm 5 m/s 748 mmHg 36%
16:00 -3°C° 0 mm 4 m/s 748 mmHg 36%
17:00 -2°C° 0 mm 3 m/s 749 mmHg 37%
18:00 -4°C° 0 mm 3 m/s 749 mmHg 41%
19:00 -4°C° 0 mm 2 m/s 750 mmHg 45%
20:00 -4°C° 0 mm 2 m/s 750 mmHg 49%
21:00 -4°C° 0 mm 2 m/s 750 mmHg 51%
22:00 -4°C° 0 mm 2 m/s 751 mmHg 53%
23:00 -4°C° 0 mm 2 m/s 751 mmHg 55%

Amanhã, 6 Março, Sábado

Tempo Temperatura Precipitação Vento Pressão Humidade
00:00 -4°C° 0.2 mm 2 m/s 751 mmHg 63%
01:00 -2°C° 0.2 mm 1 m/s 751 mmHg 72%
02:00 -3°C° 0.2 mm 1 m/s 751 mmHg 80%
03:00 -5°C° 0.1 mm 2 m/s 751 mmHg 83%
04:00 -5°C° 0.1 mm 2 m/s 751 mmHg 87%
05:00 -5°C° 0.1 mm 2 m/s 751 mmHg 90%
06:00 -5°C° 0 mm 2 m/s 752 mmHg 88%
07:00 -6°C° 0 mm 3 m/s 752 mmHg 87%
08:00 -6°C° 0 mm 3 m/s 753 mmHg 85%
09:00 -6°C° 0 mm 3 m/s 753 mmHg 74%
10:00 -5°C° 0 mm 3 m/s 753 mmHg 64%
11:00 -4°C° 0 mm 3 m/s 753 mmHg 53%
12:00 -3°C° 0 mm 4 m/s 753 mmHg 49%
13:00 -3°C° 0 mm 4 m/s 753 mmHg 45%
14:00 -2°C° 0 mm 4 m/s 753 mmHg 41%
15:00 -3°C° 0 mm 4 m/s 753 mmHg 43%
16:00 -3°C° 0 mm 4 m/s 752 mmHg 44%
17:00 -3°C° 0 mm 4 m/s 752 mmHg 46%
18:00 -5°C° 0 mm 5 m/s 751 mmHg 52%
19:00 -5°C° 0 mm 5 m/s 751 mmHg 58%
20:00 -5°C° 0 mm 5 m/s 750 mmHg 65%
21:00 -5°C° 0 mm 6 m/s 750 mmHg 64%
22:00 -5°C° 0 mm 6 m/s 749 mmHg 63%
23:00 -6°C° 0 mm 7 m/s 748 mmHg 63%

Depois de amanhã, 7 Março, Domingo

Tempo Temperatura Precipitação Vento Pressão Humidade
00:00 -4°C° 0 mm 7 m/s 747 mmHg 65%
01:00 -5°C° 0 mm 8 m/s 746 mmHg 66%
02:00 -5°C° 0 mm 8 m/s 744 mmHg 68%
03:00 -5°C° 0.1 mm 9 m/s 743 mmHg 76%
04:00 -4°C° 0.1 mm 9 m/s 742 mmHg 83%
05:00 -4°C° 0.1 mm 9 m/s 741 mmHg 91%
06:00 -4°C° 0.4 mm 9 m/s 741 mmHg 92%
07:00 -4°C° 0.4 mm 9 m/s 741 mmHg 93%
08:00 -4°C° 0.4 mm 9 m/s 741 mmHg 93%
09:00 -4°C° 0.4 mm 8 m/s 741 mmHg 86%
10:00 -3°C° 0.4 mm 7 m/s 741 mmHg 79%
11:00 -3°C° 0.4 mm 6 m/s 741 mmHg 72%
12:00 -3°C° 0 mm 6 m/s 741 mmHg 70%
13:00 -2°C° 0 mm 7 m/s 741 mmHg 69%
14:00 -2°C° 0 mm 7 m/s 741 mmHg 67%
15:00 -2°C° 0.1 mm 7 m/s 741 mmHg 64%
16:00 -3°C° 0.1 mm 6 m/s 741 mmHg 61%
17:00 -3°C° 0.1 mm 6 m/s 740 mmHg 57%
18:00 -4°C° 0 mm 5 m/s 740 mmHg 60%
19:00 -5°C° 0 mm 5 m/s 740 mmHg 63%
20:00 -6°C° 0 mm 5 m/s 740 mmHg 66%
21:00 -6°C° 0 mm 5 m/s 741 mmHg 65%
22:00 -6°C° 0 mm 5 m/s 741 mmHg 64%
23:00 -6°C° 0 mm 6 m/s 741 mmHg 63%

8 Março, Segunda-feira

Tempo Temperatura Precipitação Vento Pressão Humidade
00:00 -6°C° 0 mm 5 m/s 741 mmHg 66%
01:00 -6°C° 0 mm 5 m/s 741 mmHg 68%
02:00 -7°C° 0 mm 5 m/s 742 mmHg 70%
03:00 -7°C° 0 mm 5 m/s 742 mmHg 73%
04:00 -7°C° 0 mm 4 m/s 742 mmHg 76%
05:00 -8°C° 0 mm 4 m/s 742 mmHg 79%
06:00 -8°C° 0 mm 4 m/s 743 mmHg 75%
07:00 -7°C° 0 mm 3 m/s 743 mmHg 71%
08:00 -8°C° 0 mm 3 m/s 744 mmHg 67%
09:00 -7°C° 0 mm 3 m/s 744 mmHg 60%
10:00 -7°C° 0 mm 3 m/s 745 mmHg 53%
11:00 -5°C° 0 mm 2 m/s 745 mmHg 47%
12:00 -5°C° 0 mm 2 m/s 746 mmHg 45%
13:00 -5°C° 0 mm 3 m/s 746 mmHg 43%
14:00 -5°C° 0 mm 3 m/s 746 mmHg 42%
15:00 -5°C° 0 mm 3 m/s 746 mmHg 44%
16:00 -5°C° 0 mm 3 m/s 746 mmHg 47%
17:00 -7°C° 0 mm 4 m/s 746 mmHg 49%
18:00 -6°C° 0 mm 3 m/s 747 mmHg 57%
19:00 -7°C° 0 mm 3 m/s 748 mmHg 65%
20:00 -6°C° 0 mm 2 m/s 748 mmHg 73%
21:00 -7°C° 0.1 mm 3 m/s 749 mmHg 72%
22:00 -8°C° 0.1 mm 3 m/s 749 mmHg 72%
23:00 -9°C° 0.1 mm 4 m/s 750 mmHg 71%

9 Março, Terça-feira

Tempo Temperatura Precipitação Vento Pressão Humidade
00:00 -10°C° 0 mm 4 m/s 750 mmHg 72%
01:00 -9°C° 0 mm 3 m/s 750 mmHg 72%
02:00 -10°C° 0 mm 3 m/s 751 mmHg 73%
03:00 -10°C° 0 mm 3 m/s 751 mmHg 74%
04:00 -10°C° 0 mm 3 m/s 751 mmHg 76%
05:00 -12°C° 0 mm 4 m/s 752 mmHg 77%
06:00 -12°C° 0 mm 4 m/s 752 mmHg 76%
07:00 -12°C° 0 mm 4 m/s 753 mmHg 75%
08:00 -12°C° 0 mm 4 m/s 753 mmHg 74%
09:00 -12°C° 0 mm 4 m/s 754 mmHg 69%
10:00 -11°C° 0 mm 4 m/s 754 mmHg 64%
11:00 -11°C° 0 mm 4 m/s 754 mmHg 60%
12:00 -10°C° 0 mm 4 m/s 755 mmHg 55%
13:00 -9°C° 0 mm 4 m/s 755 mmHg 51%
14:00 -8°C° 0 mm 3 m/s 755 mmHg 47%
15:00 -8°C° 0 mm 3 m/s 756 mmHg 47%
16:00 -8°C° 0 mm 3 m/s 756 mmHg 48%
17:00 -7°C° 0 mm 2 m/s 756 mmHg 48%
18:00 -7°C° 0 mm 2 m/s 756 mmHg 52%
19:00 -7°C° 0 mm 1 m/s 757 mmHg 56%
20:00 -7°C° 0 mm 1 m/s 757 mmHg 60%
21:00 -8°C° 0 mm 1 m/s 757 mmHg 61%
22:00 -8°C° 0 mm 0 m/s 758 mmHg 62%
23:00 -8°C° 0 mm 0 m/s 758 mmHg 63%

10 Março, Quarta-feira

Tempo Temperatura Precipitação Vento Pressão Humidade
00:00 -8°C° 0 mm 1 m/s 758 mmHg 64%
01:00 -8°C° 0 mm 1 m/s 758 mmHg 65%
02:00 -10°C° 0 mm 2 m/s 758 mmHg 66%
03:00 -10°C° 0 mm 2 m/s 758 mmHg 67%
04:00 -10°C° 0 mm 2 m/s 758 mmHg 69%
05:00 -12°C° 0 mm 3 m/s 758 mmHg 70%
06:00 -12°C° 0 mm 3 m/s 758 mmHg 68%
07:00 -10°C° 0 mm 3 m/s 758 mmHg 66%
08:00 -11°C° 0 mm 4 m/s 758 mmHg 64%
09:00 -10°C° 0 mm 4 m/s 758 mmHg 59%
10:00 -9°C° 0 mm 4 m/s 758 mmHg 54%
11:00 -8°C° 0 mm 5 m/s 757 mmHg 49%
12:00 -7°C° 0 mm 5 m/s 757 mmHg 46%
13:00 -6°C° 0 mm 5 m/s 757 mmHg 43%
14:00 -5°C° 0 mm 5 m/s 756 mmHg 41%
15:00 -5°C° 0 mm 5 m/s 756 mmHg 43%
16:00 -5°C° 0 mm 5 m/s 755 mmHg 45%
17:00 -6°C° 0 mm 5 m/s 754 mmHg 47%
18:00 -6°C° 0 mm 5 m/s 754 mmHg 51%
19:00 -7°C° 0 mm 5 m/s 754 mmHg 54%
20:00 -7°C° 0 mm 4 m/s 754 mmHg 57%
21:00 -7°C° 0 mm 5 m/s 753 mmHg 56%
22:00 -7°C° 0 mm 5 m/s 753 mmHg 55%
23:00 -8°C° 0 mm 5 m/s 752 mmHg 53%
Mostrar mais

Necessitamos do seu Consentimento

A Meteoprog e os seus Fornecedores de Serviços podem armazenar e aceder a dados pessoais como cookies, identificadores do dispositivo ou outras tecnologias semelhantes existentes no seu dispositivo e processar estes dados para personalizar conteúdos e anúncios, assim como funcionalidades nas redes sociais e análise de tráfego.

  • Armazenar e/ou aceder a informações no seu dispositivo

    Os cookies, identificadores do dispositivo ou outras informações podem ser armazenados ou acedidos no seu dispositivo, para os fins acima indicados.

  • Anúncios e conteúdos personalizados, medição de anúncios e conteúdos, dados sobre o público-alvo e desenvolvimento de produtos

    Os anúncios e os conteúdos podem ser personalizados com base num perfil. Podem ser adicionados dados adicionais para uma maior personalização dos anúncios e dos conteúdos. A eficácia dos anúncios e dos conteúdos pode ser medida. Podem ser obtidas informações sobre o público que visualizou os anúncios e os conteúdos. Estes dados podem ser usados para desenvolver ou melhorar sistemas, softwares ou a experiência do utilizador.

Ao clicar em "Eu concordo”, permitirá o uso de cookies, identificadores do dispositivo e web beacons mencionados ou outras tecnologias semelhantes. As configurações do navegador do seu dispositivo podem ser alteradas.

Para certos fins, podem ser invocados interesses legítimos ao invés de consentimento. Pode ler mais informação sobre este assunto na nossa Política de Privacidade e Cookies.